Вернуться в каталог

COSMOS 2251 DEB

АктивенVLEO
NORAD 35996·DEBRIS·🇷🇺 Russia

Запущен Jun 16, 1993 с Plesetsk Cosmodrome

Loading…

Ближайшие Пролёты (ближайшие 24 часа)

TLE

СвежийSource: Space-Track

Эпоха: Sep 14, 2026, 08:08 UTC

1 35996U 93036AWN 26257.33907170  .00007501  00000-0  37906-3 0  9996
2 35996  74.0235 252.0628 0084079 271.2898  87.8665 15.14130193764910

Отслеживайте COSMOS 2251 DEB в реальном времени с AllMySat

Download on the App Store